Tracking 27402 objects as of 3-Jun-2023
HD Live streaming from Space Station
objects crossing your sky now

ONEWEB-0293

Track ONEWEB-0293 now!
10-day predictions
ONEWEB-0293 is classified as:


NORAD ID: 49082
Int'l Code: 2021-075H
Perigee: 1,199.5 km
Apogee: 1,202.3 km
Inclination: 87.9 °
Period: 109.3 minutes
Semi major axis: 7571 km
RCS: Unknown
Launch date: August 21, 2021
Source: United Kingdom (UK)
Launch site: TYURATAM MISSILE AND SPACE COMPLEX (TTMTR)
Your satellite tracking list
Your tracking list is empty




NASA's NSSDC Master Catalog

Two Line Element Set (TLE):
1 49082U 21075H   23153.69645149  .00000035  00000-0  56191-4 0  9990
2 49082  87.9184 226.4663 0001859 100.3233 259.8108 13.17645295 88378
Source of the keplerian elements: AFSPC